Wind_Speed
17 17 15 13 12 11 11 11 10 9 9 8 7 6 5 5 4 4 4 4 4 5 5 5 5 5 6 6 5 4 3 3 2 2 2 1 1 1 1 2 2 3 4 5 5 6 6 6 7 7 7 8 8 8 8 9 9 9 10 10 10 10 10 10 10 11 11 11 10 10 10 10 10 11 12 13 13 13 13 14 14 15 15 15 16
17 17 16 15 14 13 13 12 10 9 8 8 8 6 6 5 5 5 4 4 5 5 5 5 5 5 5 5 4 3 2 1 1 1 1 1 2 2 2 3 3 3 4 5 6 6 6 7 7 8 8 8 8 9 9 9 9 9 9 10 10 10 10 10 10 10 10 10 10 10 10 10 11 11 11 12 13 14 14 14 14 15 15 15 16
16 16 16 15 15 14 14 13 12 11 10 10 10 9 8 7 6 6 5 5 5 5 5 5 4 4 4 3 3 2 2 2 1 1 1 2 3 5 5 5 5 5 5 5 6 6 6 6 7 7 8 8 9 9 9 9 10 10 10 10 10 11 11 11 11 11 10 11 11 11 11 11 11 12 12 13 14 14 15 15 15 15 16 16 16
14 14 15 15 15 14 14 13 13 13 13 13 13 12 12 11 11 10 9 9 8 7 6 6 5 5 4 4 3 3 3 3 2 2 2 3 4 5 6 5 6 6 6 7 7 7 7 7 7 7 8 8 9 9 9 9 10 10 10 11 11 12 12 12 12 12 11 11 11 12 12 12 13 13 13 14 14 15 15 16 16 16 16 17 17
12 12 13 14 14 14 14 13 13 13 14 14 14 13 13 13 13 13 13 12 12 11 10 9 9 8 7 6 5 5 3 2 2 2 2 2 3 3 4 4 4 5 5 6 6 7 7 8 8 8 8 9 9 9 9 10 10 10 11 11 12 12 13 13 13 13 12 12 12 12 13 13 14 14 14 15 15 16 16 17 17 17 17 17 18
11 11 11 12 12 13 13 13 12 13 13 12 12 12 13 13 13 13 13 13 12 12 12 11 11 10 9 9 8 7 7 6 5 5 4 3 2 2 1 1 1 2 2 3 4 4 5 6 7 7 8 9 9 10 10 10 10 11 11 12 12 13 14 14 14 14 14 14 14 14 14 14 14 15 15 15 16 16 17 17 18 18 18 18 18
10 11 11 11 11 11 11 11 12 12 12 11 11 11 11 11 11 11 11 11 11 11 12 12 11 11 11 10 9 9 9 8 8 7 7 6 5 5 4 4 4 3 3 3 3 4 4 4 5 6 7 7 8 8 9 9 10 10 11 12 12 13 14 15 15 15 15 15 15 15 15 15 15 15 15 16 16 17 17 17 18 18 19 19 19
9 9 10 10 11 10 11 10 11 11 11 11 10 10 10 10 10 10 10 10 10 10 10 11 11 10 10 10 9 9 9 9 8 8 8 7 7 6 6 6 5 5 5 5 5 5 5 5 6 6 6 7 7 7 8 8 9 9 10 11 12 13 14 15 15 15 16 16 16 16 16 16 16 16 17 17 17 17 17 18 18 18 19 19 20
7 7 8 9 9 9 9 9 9 9 9 9 10 10 10 9 9 10 9 9 9 9 9 9 9 9 9 8 8 8 8 8 7 7 7 6 6 6 5 6 6 5 6 6 6 6 6 6 7 7 7 7 8 8 8 8 8 9 9 10 10 12 13 14 15 15 16 17 17 17 17 17 18 18 18 18 18 18 18 19 19 19 19 20 20
5 5 6 6 7 7 7 8 7 7 8 8 8 8 9 9 9 9 9 9 8 8 8 9 9 8 8 7 7 7 7 7 7 6 6 6 5 5 5 5 5 5 5 6 6 6 7 7 7 8 8 8 9 9 9 9 9 9 9 10 10 11 13 14 14 15 16 17 18 18 18 18 19 19 19 20 20 20 21 21 21 21 21 22 22
4 4 4 5 5 5 6 6 6 5 6 6 6 6 6 7 7 7 7 7 7 7 7 7 7 7 7 7 6 6 6 6 6 6 6 5 4 4 4 4 4 5 5 5 6 6 6 7 8 8 9 9 9 10 10 10 11 11 11 11 11 12 12 13 14 14 15 17 18 19 19 20 20 20 20 21 21 22 22 23 23 24 24 24 24
2 2 3 3 3 4 4 4 4 4 4 5 4 4 4 4 5 5 5 5 6 5 5 5 5 5 5 5 5 5 4 4 4 4 4 3 3 3 3 4 4 4 5 5 5 6 7 7 8 9 9 9 10 10 11 11 12 12 13 13 13 13 14 14 15 15 16 16 17 18 19 20 21 21 22 22 22 23 23 24 24 25 25 26 26
4 3 3 3 3 3 3 4 4 4 4 4 4 4 3 3 4 4 4 4 5 5 4 4 4 3 3 4 3 3 3 2 2 2 2 2 1 2 3 4 4 4 5 5 6 6 7 8 8 9 10 10 11 11 12 12 13 13 14 14 15 15 15 16 16 16 17 17 18 19 19 20 21 22 23 23 23 24 24 24 25 25 26 26 27
6 5 5 4 4 4 4 4 5 5 5 5 6 5 5 5 5 5 5 5 6 6 6 5 5 4 4 4 4 3 3 2 2 1 2 1 2 3 4 4 5 5 6 6 7 7 8 9 9 10 11 11 12 13 13 14 15 15 15 16 16 17 17 17 18 18 18 19 19 20 20 21 21 22 23 23 24 25 25 25 26 26 26 27 27
5 5 5 5 5 5 5 5 5 6 6 6 7 7 6 6 6 7 7 6 7 6 6 6 6 5 4 4 4 4 3 3 3 3 3 3 4 4 5 5 6 6 7 7 7 8 9 10 11 11 12 12 13 14 14 15 15 16 17 17 18 18 18 19 19 19 20 20 21 21 22 22 23 23 24 24 25 25 26 26 27 27 28 28 28
3 3 4 4 4 5 5 5 5 6 6 6 7 7 6 6 6 7 7 7 7 7 6 6 6 5 5 4 4 4 4 4 4 4 4 4 5 6 6 6 6 6 7 7 8 9 9 10 11 12 12 13 13 14 14 15 16 16 17 18 18 19 19 20 20 20 21 21 22 23 23 24 25 25 25 26 26 26 27 27 28 28 29 29 29
2 2 3 2 3 3 4 4 4 5 5 5 5 6 6 5 5 6 6 6 6 6 6 6 6 5 5 4 3 3 3 3 3 3 3 4 4 5 5 5 5 5 6 7 8 8 9 10 11 12 12 13 13 14 15 15 16 16 17 17 18 19 19 20 20 21 21 22 22 23 23 24 25 26 27 27 28 28 28 29 29 29 29 30 31
3 3 3 3 3 3 3 4 4 4 4 5 5 5 5 5 5 5 5 5 5 5 5 5 5 4 4 3 3 3 3 3 3 3 2 3 3 4 4 4 4 4 5 6 7 7 8 9 10 11 12 13 14 15 15 16 17 17 18 18 19 19 20 20 21 21 22 23 23 24 24 25 25 26 27 28 29 30 30 31 31 31 31 31 31
3 3 3 3 3 4 4 4 4 5 5 5 5 5 5 5 5 5 5 5 5 5 5 4 4 4 3 3 2 2 2 2 2 2 1 1 2 2 2 3 2 2 3 5 6 7 8 8 9 10 11 13 14 15 16 16 17 18 19 19 20 21 21 22 22 23 23 23 24 24 25 25 26 27 27 28 29 30 30 31 32 33 33 33 33
4 4 3 4 4 4 4 4 5 5 5 6 6 6 6 6 6 6 5 5 4 4 4 4 4 3 3 2 2 2 2 1 1 1 1 0 1 1 2 3 3 3 3 4 6 7 7 8 9 10 11 12 13 14 15 16 17 18 19 20 21 21 22 23 23 24 24 24 25 25 26 26 27 27 28 29 29 30 31 31 32 33 34 35 35
5 5 5 5 5 5 5 5 6 6 6 6 6 6 7 7 6 6 5 5 5 5 5 5 4 4 4 3 3 2 2 2 2 2 1 1 0 1 1 2 3 4 4 5 5 6 7 8 9 10 11 12 12 13 14 15 17 18 19 20 22 23 24 24 25 26 26 26 26 27 27 28 28 29 29 30 30 31 32 32 33 34 34 35 36
5 5 5 5 6 6 6 6 6 6 6 6 7 7 7 7 7 7 6 6 6 6 6 6 6 6 5 5 5 4 4 3 3 3 3 2 1 1 1 1 2 3 4 4 5 6 6 7 9 10 11 12 13 14 15 16 17 19 20 21 23 24 25 27 28 28 29 30 30 30 31 31 31 31 32 32 32 32 33 33 34 35 35 36 36
6 6 6 6 6 6 6 6 7 7 7 7 7 7 8 7 7 7 8 8 8 8 8 7 7 7 7 7 6 6 5 4 4 3 2 2 2 2 1 1 2 2 3 4 4 5 6 7 8 9 10 11 12 13 15 16 17 19 20 21 22 23 25 26 28 29 30 31 32 33 34 35 35 35 35 35 35 35 35 35 36 36 37 37 37
7 7 6 7 6 6 7 7 7 7 7 7 7 8 9 9 9 9 9 9 9 9 9 8 8 7 7 7 6 6 5 4 3 3 2 2 2 2 2 2 3 4 5 6 7 7 8 8 9 10 11 11 11 12 14 15 16 18 19 21 22 23 24 25 27 28 30 31 32 34 35 36 37 38 39 39 40 40 40 39 38 39 39 39 39
9 8 7 7 7 7 8 8 8 8 8 8 8 9 10 10 10 10 10 10 10 10 9 8 7 6 5 5 5 4 3 3 2 2 2 3 3 4 5 5 6 7 8 10 11 11 11 12 12 13 14 14 14 14 15 16 18 19 20 21 23 24 26 27 28 29 30 31 32 34 35 36 38 39 40 41 42 43 43 43 42 42 42 42 41
10 10 9 9 9 9 9 9 9 9 9 9 9 11 11 10 10 10 10 10 10 9 8 7 6 5 5 4 4 3 2 2 2 3 4 5 6 6 8 9 10 10 11 13 14 15 15 15 16 17 19 19 19 19 19 20 21 22 23 24 25 27 28 30 31 32 33 33 34 35 36 37 39 40 41 43 44 45 46 46 46 46 46 46 45
11 11 11 11 11 11 10 10 10 10 10 10 10 11 10 10 10 10 10 10 9 9 8 7 7 6 6 5 4 3 2 2 3 4 5 6 8 8 9 10 12 12 13 14 15 16 17 18 19 21 22 23 24 25 25 25 26 26 27 28 29 30 31 32 34 35 36 37 37 38 38 39 40 41 43 44 46 47 48 49 49 49 50 50 49
12 12 12 12 13 13 12 11 11 11 11 11 10 10 10 10 10 10 10 10 10 9 9 9 8 7 6 6 5 4 3 3 4 5 6 8 9 10 11 12 13 14 14 15 16 16 17 18 20 22 23 25 26 27 28 29 29 30 30 31 31 32 33 35 36 37 39 40 41 41 42 42 43 44 45 46 48 49 50 51 52 52 52 53 53
13 13 13 14 14 14 14 13 12 13 12 11 11 11 11 11 11 10 11 11 11 11 10 10 9 9 8 7 6 6 6 6 6 7 8 9 11 12 13 14 15 15 16 17 17 18 18 19 20 21 23 25 26 27 28 29 30 31 32 33 33 34 35 37 38 39 40 41 43 44 45 45 46 47 48 49 50 51 52 52 53 54 55 55 55
14 14 14 15 15 15 15 14 14 14 13 13 12 12 12 12 12 12 12 12 12 12 12 11 11 10 9 9 8 8 8 9 9 10 11 12 13 14 15 16 17 17 18 18 19 20 21 21 22 22 23 25 26 27 29 30 31 32 33 35 36 37 38 39 40 41 43 44 45 46 47 48 48 49 50 51 52 52 53 54 55 56 57 58 58
15 15 15 16 16 16 16 16 15 15 15 15 14 14 14 14 13 13 13 14 14 14 14 13 12 12 11 11 11 11 11 12 13 13 14 15 15 16 17 17 18 18 19 20 22 23 24 24 25 25 26 27 28 30 32 33 34 35 36 37 39 40 41 42 43 45 46 47 48 49 50 50 51 51 52 53 53 54 55 56 57 58 59 59 60
16 17 17 17 17 18 18 18 17 17 17 17 17 17 17 16 16 16 16 16 17 16 16 15 14 13 13 13 13 14 14 15 16 17 17 17 17 17 18 18 19 19 20 22 23 24 25 26 27 28 29 30 31 32 34 35 37 38 39 40 41 42 44 45 47 48 49 50 50 51 52 52 53 53 54 54 55 55 57 58 59 60 61 61 61
17 18 19 19 19 19 20 20 19 19 19 20 20 20 20 19 19 19 19 19 19 19 19 18 17 16 15 15 16 16 17 18 18 19 19 19 19 19 19 20 20 20 21 22 24 25 27 28 29 30 30 31 32 33 34 36 37 39 40 42 43 44 46 48 50 51 51 52 52 52 53 53 54 54 55 55 56 57 59 60 62 63 63 63 63
18 19 19 20 20 20 21 22 22 21 21 22 22 22 22 22 22 22 22 22 22 22 22 22 21 19 19 18 18 19 20 20 21 21 21 20 21 21 22 22 22 22 22 23 25 27 29 31 32 33 34 34 35 35 36 36 38 40 41 43 45 47 49 51 52 53 53 53 53 53 54 54 55 55 56 57 58 59 61 63 64 65 65 65 64
19 20 20 21 21 21 22 23 23 23 23 23 24 24 24 25 25 25 25 24 24 24 25 25 24 23 22 21 21 21 22 23 23 23 23 23 23 25 26 26 27 27 26 26 28 29 31 33 35 36 38 38 39 39 38 39 39 41 42 44 46 49 52 54 56 56 56 56 56 55 56 56 56 57 58 59 60 62 64 66 67 67 67 67 66
21 21 21 22 22 22 23 24 24 24 24 25 25 25 26 27 27 27 27 26 26 26 26 27 26 26 25 24 23 24 24 24 25 25 25 25 26 28 29 30 31 31 31 31 32 33 35 36 38 40 41 42 43 43 42 42 42 43 44 46 48 51 54 57 59 60 60 59 59 58 58 58 59 60 61 62 64 65 67 68 69 70 70 69 68
22 22 23 23 23 23 24 25 25 25 25 26 27 27 28 28 29 29 28 27 27 27 27 27 28 27 27 26 25 26 26 27 27 27 27 28 29 30 32 33 34 34 35 35 36 37 38 40 42 43 44 45 45 46 46 46 46 47 48 49 50 53 56 59 62 63 63 63 62 61 61 61 61 62 63 65 66 68 69 71 71 71 71 71 70
24 23 24 24 24 24 25 26 26 26 27 27 28 28 29 30 30 30 30 29 28 27 27 28 28 28 28 27 27 28 28 29 29 29 30 31 32 33 34 35 35 36 37 37 38 39 41 42 43 44 45 46 46 47 49 49 50 51 52 53 53 55 57 60 63 65 66 65 64 64 63 63 64 65 66 67 69 70 71 72 73 73 73 72 72
25 25 25 25 25 25 25 27 27 28 29 29 30 30 30 30 31 31 30 30 29 29 28 28 28 28 28 28 29 29 30 31 31 31 32 33 34 35 36 37 37 37 38 38 40 41 43 44 44 45 45 46 47 49 50 51 52 54 55 56 56 57 59 62 65 67 68 68 67 66 66 66 67 67 69 70 71 72 73 74 74 74 74 73 73
27 27 27 26 26 26 27 27 28 30 31 31 31 31 31 31 31 31 30 30 30 30 30 29 29 28 29 29 30 31 31 32 32 33 33 35 36 37 38 39 39 39 39 40 42 44 44 45 45 46 47 48 49 50 51 53 54 55 57 57 58 59 61 64 67 70 71 71 70 69 69 69 70 71 72 73 74 75 75 76 76 75 75 74 74
29 29 29 28 28 28 28 28 29 31 32 33 33 33 32 32 31 31 31 31 31 31 30 30 30 29 29 30 31 32 32 33 33 33 35 36 38 39 39 39 40 41 42 43 45 45 45 45 46 47 48 49 50 51 53 54 55 57 58 59 60 61 63 66 69 72 73 73 72 71 71 72 72 73 74 75 76 77 78 78 77 77 76 76 75
31 31 31 30 30 30 30 30 31 32 33 33 34 33 33 33 32 31 31 32 32 31 31 30 30 30 31 32 32 33 33 33 34 35 37 38 39 39 40 41 42 43 44 45 46 46 46 46 47 48 50 51 52 53 54 55 57 58 60 61 62 63 65 68 71 74 74 74 74 73 73 74 75 76 77 77 78 79 79 79 79 78 78 77 76
31 32 32 32 32 32 32 32 32 33 34 34 34 35 34 34 33 33 32 32 32 32 32 31 31 31 32 33 33 33 33 34 36 37 39 39 40 40 42 43 44 45 46 46 47 47 47 47 49 50 51 52 53 54 55 57 58 60 61 62 63 65 67 70 72 75 75 75 75 75 76 76 77 78 78 79 80 80 80 80 80 79 79 78 78
31 32 33 33 33 34 34 34 34 34 35 35 35 35 35 35 35 34 34 33 33 33 33 33 33 33 34 34 34 34 35 37 38 39 39 40 41 42 44 44 45 46 46 47 47 48 48 49 50 52 53 54 54 55 57 58 60 61 62 63 64 66 69 71 74 76 77 77 77 77 78 78 79 79 80 81 81 81 81 81 80 80 79 79 78
32 33 34 34 34 35 35 36 36 35 36 36 36 36 36 36 36 35 35 34 34 34 33 34 34 34 34 35 35 37 38 39 39 39 40 41 42 43 44 45 45 46 47 48 48 49 50 51 52 53 54 55 56 57 59 60 61 62 63 64 66 68 70 73 76 78 79 79 79 79 79 80 80 81 81 82 82 82 81 81 81 81 80 79 78
34 34 34 34 34 35 36 36 36 36 37 37 37 36 36 36 37 36 36 35 35 35 35 35 35 36 36 37 37 38 39 39 40 41 41 42 43 43 44 45 46 47 48 49 49 50 51 53 54 55 55 56 58 59 61 62 63 63 65 66 68 70 72 75 77 79 80 81 81 81 81 82 82 82 83 82 82 82 81 81 81 80 80 79 78
35 35 35 35 35 36 36 36 36 37 37 38 38 37 37 37 37 37 36 36 36 36 36 37 37 37 37 38 38 39 39 40 40 41 42 42 43 44 46 47 48 49 50 51 51 52 53 54 55 56 57 58 59 61 62 63 64 66 67 69 70 72 74 76 78 80 80 81 82 82 82 83 83 83 83 82 82 81 81 80 79 79 79 78 77
35 35 36 36 36 36 36 36 36 37 38 38 38 38 38 38 38 37 37 37 37 37 38 38 38 38 38 39 39 40 40 41 41 41 42 43 45 46 48 49 50 51 52 53 53 54 55 55 56 57 58 59 60 62 63 65 66 68 69 71 72 74 76 78 79 80 80 81 81 82 82 82 82 81 81 81 80 80 79 79 78 78 77 77 76
36 37 37 37 37 37 37 36 36 37 37 38 39 39 39 38 38 38 38 38 38 38 39 39 39 39 40 40 40 40 41 41 42 43 44 45 47 48 50 51 53 54 54 55 56 56 57 58 58 59 60 61 62 63 65 66 68 70 71 72 74 76 77 79 80 81 81 81 81 81 81 80 80 80 80 79 79 79 78 78 78 78 77 77 76
37 38 38 38 37 37 37 36 36 36 37 38 39 39 39 39 39 39 39 39 39 39 40 40 41 41 40 40 41 41 42 43 43 45 46 48 49 51 52 53 55 56 57 58 58 59 59 60 60 61 62 63 64 65 67 68 70 72 73 75 76 78 79 81 81 81 82 82 82 81 81 80 79 79 79 79 78 78 78 78 78 78 78 78 77
38 38 38 38 38 37 37 36 36 36 37 38 39 39 39 39 40 40 39 39 40 40 41 41 41 41 41 41 41 42 43 44 45 47 49 51 52 53 55 56 57 59 59 60 60 61 61 62 62 63 63 64 66 67 68 70 72 74 75 77 78 80 81 82 82 82 82 82 82 82 81 80 79 78 78 78 78 78 78 79 79 79 79 79 79
Wind_Direction
100 104 111 116 121 123 125 131 137 147 150 149 151 154 157 156 150 144 136 131 126 124 126 128 134 147 163 166 160 143 130 133 141 136 116 93 34 339 350 344 344 354 344 339 340 344 342 341 339 339 339 339 338 337 335 332 329 327 324 321 317 311 309 307 304 304 304 303 303 302 300 298 297 296 295 294 293 292 291 291 291 292 292 293 293
99 99 102 103 106 109 110 115 124 136 141 141 141 144 149 156 157 156 150 143 140 139 140 139 138 136 138 142 139 133 135 145 155 109 49 347 310 290 286 291 308 334 339 339 343 347 348 346 346 344 343 342 342 342 340 339 337 334 331 328 323 317 313 309 305 303 302 301 299 297 296 294 293 291 290 289 288 287 286 286 286 287 288 290 290
107 105 105 104 103 103 103 105 108 112 116 117 116 116 118 126 132 138 141 141 142 144 144 143 143 137 133 135 140 155 185 212 234 266 302 296 287 281 279 279 281 286 294 302 311 319 324 329 332 333 333 333 334 335 336 338 338 337 336 334 330 326 321 316 312 309 306 303 300 297 295 294 292 290 289 287 285 285 283 283 282 283 284 285 286
112 114 114 112 110 107 105 104 102 103 105 105 104 104 105 106 108 110 111 112 116 119 121 125 126 127 131 142 162 185 208 225 232 234 240 250 260 267 270 271 271 273 275 279 285 291 295 300 306 311 314 316 319 322 325 328 331 332 332 331 330 328 324 321 318 316 313 309 304 301 299 297 295 293 291 289 287 286 285 284 282 281 281 281 281
113 117 119 119 117 117 114 111 107 105 105 106 106 106 105 105 104 104 104 105 107 109 111 113 113 115 118 125 134 143 155 167 161 160 171 199 225 242 254 264 269 273 274 276 280 283 286 287 291 295 299 302 305 309 313 316 320 322 324 326 327 325 322 320 318 317 317 314 311 307 304 300 298 297 295 293 292 290 289 288 286 284 282 281 279
110 113 115 116 118 119 119 119 116 114 112 112 111 110 108 107 106 104 104 104 106 107 107 106 105 107 107 108 109 111 114 112 106 107 110 116 122 125 114 75 320 300 299 301 301 299 295 294 295 296 298 301 302 304 305 307 310 313 317 319 321 321 319 317 317 316 316 316 314 311 308 305 302 301 298 297 296 294 293 292 291 289 287 285 282
111 111 111 112 113 115 116 117 118 120 120 120 118 116 114 112 110 108 106 106 105 104 102 100 99 99 98 98 97 97 97 96 94 93 92 88 83 78 74 70 62 45 30 21 14 359 346 335 329 324 321 318 316 313 310 309 308 309 311 314 315 316 315 313 313 315 315 314 312 311 309 308 306 304 302 300 298 297 296 295 294 293 292 290 288
117 115 114 114 113 113 114 115 116 118 119 121 120 119 117 116 114 112 111 110 107 105 103 101 101 100 100 101 101 100 99 99 97 95 94 90 84 78 72 67 61 50 40 34 30 24 16 8 1 355 350 345 340 335 328 323 319 316 314 314 314 313 312 310 310 311 312 311 310 309 308 307 305 304 303 301 300 299 297 296 296 295 294 293 291
125 122 120 119 118 118 117 116 116 116 116 117 117 118 118 117 117 116 115 113 112 110 109 108 107 107 107 108 106 105 105 104 102 100 96 90 85 78 71 64 57 48 38 29 26 23 16 12 8 4 360 356 353 348 343 338 333 329 325 320 316 313 311 310 309 311 313 311 310 310 308 306 305 303 302 300 299 298 297 297 296 295 294 293 292
140 135 129 125 122 122 121 120 119 118 118 116 115 117 118 118 117 116 116 115 113 110 108 107 107 108 106 104 101 100 100 98 98 96 89 84 78 73 68 61 53 46 37 26 20 15 11 6 3 1 358 355 353 350 346 343 341 337 335 329 324 318 315 314 313 314 314 312 311 311 310 308 306 305 303 301 299 298 297 296 295 295 294 293 292
152 145 141 137 131 129 129 126 125 124 121 119 117 117 117 117 115 113 113 111 107 103 101 102 102 103 102 100 98 96 94 94 93 92 89 85 82 74 68 62 51 43 37 26 15 8 5 0 356 355 352 351 348 346 343 341 339 337 336 333 329 326 322 319 318 317 315 313 311 311 311 310 308 306 305 303 301 300 299 298 297 297 296 296 295
131 131 130 130 129 130 131 131 129 126 122 119 118 118 118 116 116 113 110 107 103 101 99 99 100 102 103 104 101 98 97 95 93 91 89 81 73 58 49 44 35 28 22 13 3 356 354 352 349 347 345 344 341 339 337 335 334 333 332 330 329 327 324 322 321 319 317 314 313 312 311 310 309 307 306 304 303 302 301 300 300 299 299 298 298
95 101 103 102 106 109 113 117 119 121 118 114 113 112 114 115 116 116 116 118 117 117 116 116 116 118 123 123 119 117 115 109 100 90 86 71 39 23 20 17 11 3 357 354 349 345 343 342 340 338 337 335 334 333 332 331 330 329 328 327 326 324 323 322 320 319 317 315 313 312 311 309 308 307 306 305 304 302 301 300 299 299 299 298 298
91 96 99 101 100 101 101 103 107 112 114 114 114 114 116 117 119 119 121 125 126 128 131 135 137 140 144 141 136 134 131 120 101 69 56 40 16 13 11 7 2 354 349 348 346 343 341 341 340 339 337 336 335 334 333 332 330 329 328 327 325 324 322 320 319 317 316 314 313 311 310 308 307 306 305 304 304 303 302 301 299 298 297 297 296
92 96 100 103 106 107 107 109 113 115 117 119 120 122 125 127 127 127 126 126 123 123 128 131 134 134 133 129 125 120 114 102 85 64 50 39 36 34 29 21 15 6 359 358 356 352 350 350 349 348 347 345 344 343 341 338 336 335 334 333 330 328 326 323 321 319 316 314 313 311 310 308 307 305 304 303 302 301 301 300 299 298 297 297 296
116 113 110 111 115 119 122 125 127 128 130 130 132 133 135 138 138 138 135 133 130 130 133 133 132 132 130 127 120 114 103 91 79 64 50 39 39 41 39 30 21 12 3 1 0 358 356 356 356 355 353 351 349 348 346 344 342 340 339 338 336 334 332 330 328 325 322 319 316 314 311 309 308 306 305 303 302 301 300 298 298 297 297 296 296
162 160 153 149 148 149 147 147 148 148 149 149 149 148 150 154 154 153 149 146 146 149 150 148 149 150 148 146 136 125 111 96 85 71 50 36 34 37 40 32 19 9 359 358 358 357 356 355 355 355 353 351 349 348 346 345 344 342 341 339 338 336 335 333 332 330 328 325 322 319 316 313 310 308 306 305 303 302 300 299 298 297 296 295 294
177 182 182 187 196 199 190 181 182 181 181 178 175 175 176 180 180 177 175 171 168 171 169 164 165 165 162 157 146 135 121 108 97 87 64 39 29 28 32 30 22 7 353 351 352 353 354 354 354 352 351 350 348 348 346 345 343 342 340 339 337 335 334 333 332 330 329 327 325 323 320 317 315 312 310 308 305 303 301 300 299 297 296 295 294
210 205 202 203 209 218 220 213 212 209 208 207 204 206 205 206 208 207 204 198 193 190 184 177 176 170 164 156 142 131 116 106 96 90 77 48 25 17 19 18 18 9 349 346 347 350 353 354 353 351 350 350 349 348 347 345 344 342 340 339 337 336 335 333 332 330 329 327 325 323 320 318 316 314 313 311 309 307 305 302 300 298 296 295 294
252 242 235 228 226 231 237 235 234 230 228 226 226 227 229 228 228 229 225 219 213 204 194 187 182 172 171 170 158 143 131 123 116 114 103 58 0 0 5 0 358 359 352 346 347 348 350 353 355 357 355 354 352 350 349 347 345 344 342 340 339 338 337 335 334 332 330 328 325 323 321 319 317 315 313 312 310 309 307 305 303 300 298 296 294
265 262 257 251 246 244 246 248 248 247 245 242 241 240 241 241 239 237 232 226 219 211 204 197 193 190 192 195 193 191 186 182 180 188 192 198 241 324 348 346 345 347 347 349 352 352 352 354 357 0 359 355 352 350 349 347 345 344 343 341 340 339 339 337 336 334 332 329 327 326 324 322 319 317 315 313 311 310 308 306 304 302 300 299 297
271 270 267 262 258 254 253 253 255 258 258 258 257 253 249 246 242 238 228 222 218 213 210 205 204 203 203 203 202 204 203 199 197 198 198 199 211 225 265 306 323 330 334 344 354 354 352 354 354 353 352 351 350 349 348 347 345 343 342 342 341 340 339 338 337 335 334 332 330 328 327 325 323 321 318 316 314 312 310 308 306 304 302 300 298
275 275 275 272 266 264 261 257 257 258 260 263 265 264 259 253 245 240 232 225 221 218 213 210 210 207 207 205 202 205 207 207 204 202 203 201 204 207 221 245 277 296 306 318 328 334 337 343 341 336 336 339 342 343 341 341 341 340 340 340 340 339 338 337 336 335 333 332 331 329 328 327 325 323 321 319 317 315 313 310 308 305 303 301 299
276 275 276 277 274 270 265 260 257 256 257 258 261 262 258 253 245 238 234 232 227 223 219 215 214 211 212 209 205 210 215 218 216 218 227 233 237 244 254 260 271 284 294 300 306 313 319 323 322 318 317 320 325 327 327 328 330 331 333 334 334 335 334 333 333 332 331 330 329 328 327 326 325 324 322 320 319 317 315 313 310 306 304 302 300
274 274 272 272 270 267 263 259 257 256 255 252 254 254 251 250 245 239 237 235 232 228 226 222 219 218 219 216 214 217 223 235 239 248 269 285 294 301 304 306 308 310 310 312 314 317 319 319 317 315 313 313 315 316 317 318 320 322 324 325 327 327 327 327 327 327 327 326 326 325 325 324 323 322 321 320 318 317 316 314 312 309 306 304 301
268 271 271 269 266 262 261 260 257 255 252 250 250 249 247 249 248 244 242 239 235 232 230 225 219 216 215 216 220 218 227 257 281 299 308 309 312 315 315 315 316 316 317 316 317 317 318 317 316 315 313 313 312 312 313 314 316 317 319 320 320 321 321 321 321 321 321 321 322 321 321 321 320 320 319 318 318 317 316 314 313 310 308 306 303
265 268 271 271 268 265 263 263 260 256 253 251 251 251 249 250 251 250 247 244 240 235 230 223 214 210 209 211 219 222 235 267 292 305 307 308 309 311 310 310 312 312 312 312 313 314 314 314 314 313 312 311 311 311 312 312 314 315 316 317 316 316 316 316 317 317 317 317 317 317 316 317 317 317 316 316 315 315 314 313 312 310 308 307 305
266 269 272 273 272 271 268 265 263 260 256 255 254 255 255 254 252 251 249 245 241 237 232 226 219 215 213 213 220 230 244 258 273 285 292 296 299 300 300 301 303 304 303 304 304 305 307 308 309 310 309 308 308 308 308 308 310 311 312 312 312 313 313 314 314 314 315 314 314 314 313 313 313 313 313 313 313 312 312 311 310 309 308 306 304
266 268 272 274 275 274 272 268 265 263 261 259 258 257 259 257 253 250 249 245 240 237 235 230 225 222 221 220 225 236 247 256 265 274 282 287 290 292 293 295 296 298 299 301 302 302 302 303 304 304 304 304 304 304 304 306 308 309 310 310 311 313 313 313 314 314 314 314 314 313 312 311 311 311 311 311 310 310 309 309 308 307 306 305 303
267 268 270 273 276 276 274 271 267 265 265 264 261 259 261 261 258 254 252 249 245 241 239 234 232 230 231 232 237 244 253 261 267 273 279 283 287 290 293 295 297 301 304 307 308 308 308 308 308 307 307 306 307 307 308 310 312 313 312 313 314 315 315 315 315 316 315 315 314 313 312 311 310 309 309 308 308 308 307 306 306 305 304 303 302
271 272 272 272 274 276 275 273 270 267 267 266 263 260 261 262 263 262 260 258 254 249 245 241 239 239 241 244 249 255 261 267 273 279 283 286 290 293 296 299 302 307 310 312 314 315 316 316 316 317 316 315 315 316 316 317 318 318 317 317 317 317 317 317 317 317 316 315 314 313 312 310 309 308 307 307 306 306 305 305 304 303 302 301 300
273 274 274 274 274 275 274 272 270 268 266 265 263 261 260 260 263 264 264 264 261 257 252 247 244 245 247 251 255 260 266 272 278 283 287 290 294 296 298 301 306 309 313 316 318 319 319 319 320 320 320 320 320 321 321 322 322 321 320 320 319 319 319 319 318 317 315 314 312 311 310 308 307 306 306 305 305 305 304 304 303 302 301 300 299
271 271 273 274 275 275 274 272 269 266 264 262 262 261 260 260 260 262 263 264 264 262 258 251 248 248 250 253 258 263 269 274 279 284 288 293 296 297 299 302 305 308 312 315 316 318 318 318 318 318 319 319 320 321 322 322 322 322 322 321 320 320 320 320 318 316 315 313 311 310 308 307 306 305 305 304 304 304 304 303 302 301 300 298 297
269 269 270 271 272 272 272 272 269 266 263 261 260 259 259 260 260 260 261 262 263 262 259 254 251 251 252 254 259 265 270 275 279 284 289 293 296 298 300 302 304 306 308 310 312 313 313 314 314 315 315 316 316 317 318 319 320 320 320 320 319 319 320 320 319 317 315 313 312 310 309 307 306 305 304 303 303 303 303 302 301 300 299 297 296
267 267 267 267 268 269 269 269 269 267 264 261 259 258 258 257 257 258 258 259 260 260 258 255 254 254 254 256 260 266 271 275 279 284 289 293 297 300 302 303 304 305 306 307 308 308 308 309 309 310 310 311 311 312 313 313 315 316 317 317 317 318 319 320 320 318 317 315 313 311 310 309 307 305 304 303 303 302 302 302 301 300 299 297 295
268 267 266 266 267 267 268 268 267 265 263 261 260 258 257 256 255 255 255 256 256 257 257 257 256 257 256 257 261 267 272 275 279 284 289 295 299 301 302 303 304 304 305 306 306 306 306 306 306 306 306 306 307 307 308 308 310 312 313 314 315 317 318 320 320 320 318 316 314 313 311 309 308 306 305 304 303 303 302 302 301 300 299 297 296
269 268 268 267 267 267 268 268 266 263 261 260 259 258 258 258 257 256 256 256 256 256 257 258 258 258 258 259 263 268 273 277 280 285 291 295 299 301 302 303 303 303 304 305 306 306 305 305 305 305 305 305 306 306 306 306 307 309 311 312 313 315 317 319 320 320 319 317 315 313 311 309 308 306 305 304 303 303 302 301 300 299 298 297 296
269 270 270 269 268 267 267 268 267 264 261 259 259 260 261 261 260 260 260 259 259 258 259 260 260 260 260 261 264 269 274 278 282 286 291 295 298 300 302 302 302 302 303 304 305 306 306 306 306 306 306 306 306 306 306 306 307 308 309 311 312 314 316 318 319 320 319 317 315 312 310 309 307 306 305 303 303 302 301 300 299 298 297 296 295
271 271 272 272 271 269 267 267 266 264 262 261 262 263 264 265 264 264 263 262 261 261 261 262 261 261 261 263 266 271 275 280 283 287 291 294 298 299 300 300 300 301 303 304 306 307 307 307 306 306 306 306 306 306 306 306 307 308 309 310 311 313 315 317 318 319 319 317 315 313 311 309 308 306 305 303 302 302 301 299 298 297 296 294 293
272 272 272 273 273 271 268 266 265 264 263 263 264 266 267 267 267 267 266 264 263 263 263 263 263 263 263 265 269 273 276 280 283 287 290 293 296 297 297 298 300 302 304 306 307 307 306 306 305 305 305 305 305 305 305 306 307 308 309 310 311 312 314 316 318 319 319 317 315 313 311 310 308 306 305 304 303 301 300 299 298 296 295 294 292
271 271 272 273 274 273 271 268 265 264 263 263 264 266 268 268 269 270 269 267 265 265 265 264 264 264 265 268 271 275 278 281 284 287 290 292 293 294 295 298 300 302 303 305 305 305 304 304 304 304 304 304 304 304 305 307 308 309 309 310 311 312 314 316 317 318 318 317 315 313 312 310 308 307 305 304 303 301 300 299 297 296 294 293 291
271 271 270 271 272 272 272 270 267 265 264 264 264 265 267 268 269 270 270 268 266 266 265 265 266 266 268 271 274 276 279 281 284 287 289 290 291 293 296 298 300 301 302 303 302 302 302 302 302 302 303 303 304 305 306 307 308 309 309 310 311 313 314 316 317 318 317 316 314 313 311 310 308 306 305 304 302 301 300 298 297 296 294 293 291
272 271 270 269 270 271 271 271 270 268 266 266 265 266 266 267 268 269 269 267 266 266 266 266 268 270 272 273 275 277 279 282 285 287 288 289 291 293 296 298 299 300 301 301 301 300 300 301 301 302 302 303 304 305 306 307 308 309 309 310 312 313 314 315 316 317 317 315 314 312 311 309 308 306 304 303 302 300 299 298 297 296 294 293 292
272 271 270 269 269 270 271 272 271 270 268 266 265 266 267 267 268 269 269 268 266 266 267 268 270 272 273 274 276 278 281 284 286 286 287 289 291 294 296 297 298 299 299 299 300 300 300 301 301 302 303 304 305 305 306 307 308 308 309 311 313 314 314 315 316 317 317 315 313 312 310 308 307 305 304 302 301 300 299 298 297 296 294 293 292
272 270 270 270 270 270 271 272 272 271 269 267 266 266 267 267 268 268 268 267 266 267 268 269 271 272 273 275 278 281 283 284 285 286 288 290 293 294 296 297 298 299 299 299 299 300 301 302 303 303 304 305 306 306 307 307 308 309 311 313 314 314 315 316 316 316 316 315 313 311 309 308 306 305 303 302 301 300 299 298 297 296 295 294 293
272 272 272 272 272 272 272 272 272 271 269 268 267 266 267 267 268 268 268 267 267 267 268 270 271 272 274 277 280 282 283 284 285 287 289 292 294 295 296 297 298 299 299 300 301 302 302 303 304 304 305 306 306 307 307 308 310 312 314 314 314 315 315 316 316 315 315 314 312 310 309 307 306 304 303 302 301 300 299 298 296 296 295 294 293
272 273 272 272 271 272 272 272 272 271 269 268 267 266 266 267 267 268 268 267 267 267 268 269 271 273 276 278 280 282 283 284 286 289 291 293 295 296 297 298 298 299 300 302 302 303 303 303 304 305 306 306 307 307 309 310 312 314 315 315 315 315 315 315 315 314 313 312 311 309 308 306 305 304 302 301 300 299 298 297 296 295 294 293 291
272 272 271 271 270 271 271 272 272 270 269 267 265 264 265 265 266 267 267 266 267 268 268 269 272 274 277 279 281 282 284 286 288 290 292 294 295 296 297 298 299 301 302 303 303 303 303 304 305 305 305 306 307 308 310 312 313 314 315 315 315 315 315 314 314 313 311 310 309 307 306 305 304 303 302 301 300 299 297 296 295 294 293 292 290
271 270 270 269 269 269 270 270 270 269 267 265 263 262 263 263 264 265 265 265 266 267 268 270 272 275 277 279 281 283 285 287 288 290 292 295 296 297 299 300 301 302 303 303 303 303 303 304 304 305 305 306 308 310 311 313 314 314 314 314 314 314 314 313 312 311 310 309 307 305 304 303 302 302 301 300 299 298 297 296 295 294 293 291 290
270 269 269 268 268 267 267 268 267 266 264 263 261 261 261 261 262 263 264 264 265 266 268 270 273 276 278 279 281 283 285 287 289 291 293 295 297 299 300 302 303 303 304 303 303 303 303 304 304 305 306 307 309 310 312 313 313 314 313 313 313 313 313 312 311 310 309 308 306 304 303 303 301 301 300 299 299 298 297 296 295 294 292 291 289
269 269 269 268 266 266 265 265 264 263 262 260 259 259 259 260 260 261 262 264 265 266 269 271 274 276 277 279 281 284 286 288 290 292 294 296 298 300 301 303 304 304 303 303 303 303 303 303 304 305 307 308 309 310 312 312 313 313 313 313 313 313 313 312 310 309 308 307 305 304 303 303 302 301 300 300 299 298 297 296 295 294 292 291 289
Height
5880 5879 5879 5878 5877 5877 5877 5877 5878 5878 5878 5879 5880 5881 5882 5882 5883 5884 5884 5885 5885 5886 5886 5887 5887 5888 5888 5889 5889 5889 5890 5890 5891 5892 5892 5892 5892 5892 5893 5893 5893 5893 5893 5893 5893 5893 5893 5893 5893 5893 5893 5893 5893 5893 5893 5892 5892 5892 5892 5891 5891 5890 5890 5890 5889 5889 5888 5888 5887 5887 5886 5886 5886 5885 5885 5884 5884 5884 5884 5884 5883 5883 5883 5882 5882
5880 5880 5880 5880 5879 5879 5879 5878 5878 5879 5879 5879 5880 5881 5882 5882 5883 5884 5884 5885 5885 5886 5887 5887 5887 5888 5888 5888 5889 5890 5890 5891 5891 5891 5891 5891 5892 5892 5892 5893 5893 5893 5893 5893 5893 5893 5892 5892 5892 5892 5892 5892 5892 5892 5892 5892 5892 5891 5891 5891 5890 5889 5889 5889 5888 5888 5887 5887 5886 5886 5885 5885 5885 5884 5884 5883 5883 5883 5883 5882 5882 5882 5881 5881 5881
5881 5881 5881 5881 5881 5881 5880 5880 5880 5880 5880 5880 5881 5881 5882 5883 5883 5884 5884 5885 5885 5886 5887 5887 5887 5888 5888 5889 5889 5890 5891 5891 5891 5891 5891 5891 5891 5891 5892 5893 5893 5893 5893 5893 5892 5892 5892 5892 5892 5892 5892 5892 5892 5892 5892 5891 5891 5891 5891 5890 5889 5889 5888 5888 5887 5887 5886 5886 5886 5885 5885 5884 5884 5883 5883 5882 5882 5881 5881 5881 5880 5880 5880 5880 5879
5882 5882 5882 5882 5882 5882 5881 5881 5881 5881 5882 5882 5882 5882 5883 5883 5883 5884 5884 5885 5885 5886 5886 5886 5887 5887 5888 5888 5889 5889 5890 5890 5890 5891 5891 5891 5891 5891 5891 5892 5892 5892 5892 5892 5892 5891 5891 5891 5891 5891 5891 5891 5891 5891 5891 5891 5891 5890 5890 5889 5889 5888 5888 5887 5887 5886 5886 5885 5885 5884 5884 5883 5883 5882 5882 5881 5881 5880 5880 5879 5879 5879 5878 5878 5878
5883 5883 5883 5882 5882 5882 5882 5882 5882 5882 5882 5883 5883 5883 5884 5884 5884 5884 5884 5885 5885 5885 5886 5886 5886 5886 5887 5887 5888 5888 5889 5889 5889 5889 5890 5890 5890 5890 5890 5891 5891 5891 5891 5891 5891 5890 5890 5890 5890 5890 5890 5890 5890 5890 5890 5890 5890 5890 5889 5889 5888 5888 5887 5886 5886 5886 5885 5885 5884 5884 5883 5883 5882 5882 5881 5881 5880 5880 5880 5879 5878 5878 5877 5877 5876
5884 5884 5884 5883 5883 5883 5883 5882 5882 5883 5883 5884 5884 5884 5884 5884 5884 5884 5885 5885 5885 5885 5886 5886 5886 5886 5886 5887 5887 5888 5888 5888 5889 5889 5889 5889 5889 5890 5890 5890 5890 5890 5890 5890 5890 5890 5889 5889 5890 5890 5890 5889 5889 5889 5889 5889 5889 5889 5888 5888 5888 5887 5886 5886 5885 5885 5885 5885 5884 5884 5883 5883 5882 5882 5881 5880 5880 5880 5879 5878 5878 5877 5877 5876 5876
5885 5885 5885 5884 5884 5884 5884 5883 5883 5884 5884 5884 5884 5884 5884 5884 5884 5885 5885 5885 5886 5886 5886 5886 5887 5887 5887 5887 5888 5888 5889 5889 5889 5889 5889 5889 5889 5890 5890 5890 5889 5889 5889 5889 5889 5889 5889 5889 5889 5889 5889 5889 5889 5889 5888 5888 5888 5888 5888 5887 5887 5886 5885 5885 5885 5885 5884 5884 5884 5883 5883 5882 5882 5881 5880 5880 5879 5879 5878 5878 5877 5877 5876 5876 5875
5886 5885 5885 5885 5885 5885 5885 5885 5885 5885 5885 5885 5885 5885 5885 5885 5885 5885 5886 5886 5886 5887 5887 5887 5887 5887 5887 5888 5888 5888 5889 5889 5889 5889 5889 5889 5889 5889 5889 5889 5889 5889 5889 5889 5889 5889 5889 5889 5888 5888 5888 5888 5888 5888 5888 5887 5887 5887 5887 5887 5886 5885 5884 5884 5884 5884 5883 5883 5883 5883 5882 5882 5881 5881 5880 5879 5879 5878 5878 5877 5876 5876 5875 5875 5874
5886 5886 5886 5886 5886 5886 5886 5886 5886 5886 5886 5886 5886 5886 5886 5886 5886 5886 5886 5887 5887 5887 5887 5887 5887 5887 5888 5888 5888 5888 5888 5888 5889 5889 5889 5889 5889 5889 5889 5889 5889 5888 5888 5888 5888 5888 5888 5888 5888 5888 5887 5887 5887 5887 5887 5887 5886 5886 5886 5886 5886 5884 5883 5883 5883 5883 5883 5882 5882 5882 5881 5881 5880 5880 5879 5879 5878 5878 5877 5876 5876 5875 5874 5874 5873
5887 5887 5887 5887 5887 5887 5887 5887 5887 5887 5887 5887 5887 5887 5887 5887 5887 5887 5887 5887 5887 5888 5888 5888 5888 5888 5888 5888 5889 5889 5889 5889 5889 5889 5889 5888 5888 5888 5888 5888 5888 5888 5888 5888 5888 5888 5887 5887 5887 5887 5887 5886 5886 5886 5886 5885 5885 5885 5885 5885 5885 5884 5883 5883 5882 5883 5882 5881 5881 5880 5880 5880 5879 5879 5878 5878 5877 5877 5876 5875 5875 5874 5873 5872 5872
5887 5887 5888 5888 5888 5888 5888 5888 5888 5888 5888 5888 5888 5888 5888 5888 5888 5888 5888 5888 5888 5889 5889 5888 5888 5889 5889 5889 5889 5889 5889 5889 5889 5889 5889 5889 5888 5888 5888 5888 5888 5888 5888 5888 5887 5887 5887 5887 5887 5886 5886 5886 5885 5885 5885 5884 5884 5884 5884 5884 5884 5883 5883 5882 5882 5882 5881 5881 5880 5879 5879 5879 5878 5878 5877 5877 5876 5876 5875 5874 5874 5873 5872 5871 5870
5888 5888 5888 5888 5888 5888 5889 5889 5889 5889 5889 5889 5889 5889 5889 5889 5889 5889 5889 5889 5889 5889 5889 5889 5889 5889 5889 5889 5889 5889 5889 5889 5889 5889 5889 5889 5889 5889 5889 5889 5888 5888 5888 5888 5887 5887 5887 5887 5886 5886 5886 5885 5885 5884 5884 5883 5883 5883 5883 5882 5882 5882 5882 5881 5881 5881 5880 5880 5879 5878 5878 5877 5877 5876 5876 5876 5875 5874 5874 5873 5873 5872 5871 5870 5869
5888 5888 5888 5888 5889 5889 5889 5889 5889 5889 5889 5889 5889 5889 5889 5889 5889 5889 5889 5889 5889 5889 5890 5889 5889 5889 5889 5889 5889 5889 5889 5889 5889 5889 5889 5889 5889 5889 5889 5888 5888 5888 5888 5887 5887 5887 5887 5886 5886 5886 5885 5885 5884 5884 5883 5883 5882 5882 5882 5881 5881 5881 5880 5880 5880 5879 5879 5878 5878 5877 5877 5876 5875 5875 5874 5874 5873 5873 5872 5872 5871 5871 5870 5869 5868
5888 5888 5888 5888 5889 5889 5889 5889 5889 5889 5889 5889 5889 5889 5889 5889 5889 5889 5889 5889 5889 5889 5889 5889 5889 5889 5889 5889 5889 5889 5889 5889 5889 5889 5889 5888 5888 5888 5888 5888 5888 5888 5888 5887 5887 5887 5887 5886 5886 5886 5885 5885 5884 5884 5883 5882 5882 5881 5881 5880 5880 5880 5879 5879 5878 5878 5877 5877 5876 5876 5875 5875 5874 5873 5873 5872 5872 5871 5871 5870 5869 5869 5868 5867 5866
5888 5888 5888 5889 5889 5889 5889 5889 5889 5889 5889 5889 5889 5889 5889 5889 5889 5889 5889 5889 5889 5889 5889 5889 5889 5889 5889 5889 5889 5889 5889 5888 5888 5888 5888 5888 5888 5888 5888 5888 5888 5887 5887 5887 5887 5887 5886 5886 5886 5885 5885 5884 5884 5883 5883 5882 5881 5881 5880 5880 5879 5879 5878 5878 5877 5877 5876 5876 5875 5875 5874 5873 5872 5872 5871 5870 5870 5869 5869 5868 5867 5866 5866 5865 5864
5889 5889 5889 5889 5889 5889 5889 5889 5889 5889 5889 5889 5889 5889 5889 5889 5888 5888 5888 5888 5888 5888 5889 5889 5889 5889 5889 5889 5888 5888 5888 5888 5888 5887 5887 5887 5887 5887 5887 5887 5887 5887 5886 5886 5886 5886 5886 5886 5885 5885 5884 5884 5883 5882 5882 5881 5880 5880 5879 5879 5878 5877 5877 5876 5876 5875 5875 5874 5874 5873 5872 5872 5871 5870 5869 5869 5868 5867 5866 5866 5865 5864 5864 5863 5862
5889 5889 5889 5889 5889 5889 5889 5889 5889 5890 5889 5889 5889 5889 5889 5889 5888 5888 5888 5888 5888 5888 5888 5888 5888 5888 5888 5888 5887 5887 5887 5887 5887 5886 5886 5886 5886 5886 5886 5886 5886 5886 5885 5885 5885 5885 5885 5885 5884 5884 5883 5883 5882 5881 5881 5880 5879 5878 5878 5877 5877 5876 5875 5875 5874 5873 5873 5872 5872 5871 5871 5870 5869 5868 5868 5867 5866 5865 5864 5864 5863 5862 5861 5860 5860
5888 5888 5889 5889 5889 5889 5889 5889 5889 5889 5889 5889 5889 5889 5889 5889 5888 5888 5888 5888 5888 5888 5888 5888 5888 5888 5887 5887 5887 5887 5887 5886 5886 5886 5885 5885 5885 5885 5885 5885 5885 5885 5884 5884 5883 5883 5883 5883 5883 5882 5882 5881 5880 5880 5879 5879 5878 5877 5876 5876 5875 5874 5874 5873 5872 5872 5871 5870 5870 5869 5869 5868 5867 5866 5865 5865 5864 5863 5862 5862 5861 5860 5859 5858 5857
5888 5888 5888 5889 5889 5889 5889 5889 5889 5889 5889 5889 5889 5889 5889 5889 5888 5888 5888 5888 5888 5888 5888 5888 5888 5887 5887 5887 5887 5887 5886 5886 5886 5885 5885 5885 5884 5884 5884 5884 5884 5884 5883 5882 5882 5882 5881 5881 5881 5880 5880 5879 5879 5878 5878 5877 5876 5876 5875 5874 5873 5873 5872 5871 5871 5870 5869 5868 5868 5867 5866 5866 5865 5864 5863 5862 5861 5861 5860 5859 5858 5857 5856 5856 5855
5888 5888 5888 5888 5888 5888 5888 5889 5889 5889 5889 5889 5889 5889 5889 5888 5888 5888 5888 5888 5888 5888 5888 5888 5887 5887 5887 5887 5886 5886 5886 5886 5885 5885 5884 5884 5884 5884 5883 5883 5883 5883 5882 5882 5881 5881 5880 5880 5879 5879 5878 5877 5877 5876 5876 5875 5875 5874 5873 5873 5872 5871 5870 5870 5869 5868 5867 5866 5865 5865 5864 5863 5862 5861 5861 5860 5859 5858 5857 5856 5855 5855 5854 5853 5852
5887 5887 5887 5887 5888 5888 5888 5888 5888 5888 5888 5889 5888 5888 5888 5888 5888 5888 5888 5888 5888 5888 5887 5887 5887 5887 5886 5886 5885 5885 5885 5885 5884 5884 5883 5883 5883 5883 5883 5883 5882 5882 5881 5881 5880 5880 5879 5879 5878 5878 5877 5876 5875 5875 5874 5873 5873 5872 5871 5871 5870 5869 5868 5868 5867 5866 5865 5864 5863 5862 5861 5861 5860 5859 5858 5857 5856 5855 5854 5853 5852 5851 5850 5850 5849
5887 5887 5887 5887 5887 5887 5887 5887 5887 5888 5888 5888 5888 5888 5888 5888 5888 5887 5887 5887 5887 5887 5886 5886 5886 5886 5885 5885 5884 5884 5884 5883 5883 5883 5883 5882 5882 5882 5882 5882 5881 5881 5880 5880 5879 5879 5878 5878 5877 5876 5876 5875 5874 5873 5872 5872 5871 5870 5869 5869 5868 5867 5866 5866 5865 5864 5863 5862 5861 5860 5859 5858 5857 5856 5855 5854 5853 5852 5851 5850 5849 5848 5847 5846 5845
5886 5886 5886 5886 5886 5886 5887 5887 5887 5887 5887 5887 5887 5887 5887 5887 5887 5887 5886 5886 5886 5886 5885 5885 5885 5885 5885 5884 5884 5883 5883 5883 5882 5882 5882 5882 5882 5881 5881 5881 5880 5880 5879 5878 5878 5877 5877 5876 5876 5875 5874 5874 5873 5872 5871 5870 5870 5869 5868 5867 5866 5865 5865 5864 5863 5862 5861 5859 5858 5857 5856 5855 5854 5853 5852 5851 5850 5849 5848 5847 5846 5845 5844 5843 5842
5885 5885 5885 5885 5885 5885 5885 5886 5886 5886 5886 5886 5886 5886 5885 5885 5885 5886 5885 5885 5885 5885 5885 5885 5884 5884 5884 5884 5883 5883 5883 5882 5882 5882 5882 5881 5881 5881 5880 5880 5879 5879 5878 5877 5876 5876 5875 5875 5874 5873 5873 5872 5872 5871 5870 5869 5868 5867 5866 5866 5865 5864 5863 5862 5861 5859 5858 5857 5856 5855 5853 5852 5851 5850 5848 5847 5846 5845 5844 5843 5842 5841 5840 5839 5838
5884 5884 5884 5884 5884 5884 5884 5885 5885 5885 5885 5885 5885 5885 5884 5884 5884 5884 5884 5884 5884 5884 5884 5884 5884 5884 5884 5883 5883 5882 5882 5882 5881 5881 5881 5881 5880 5880 5879 5879 5878 5878 5877 5876 5875 5875 5874 5873 5873 5872 5871 5870 5870 5869 5868 5867 5866 5865 5865 5864 5863 5862 5861 5859 5858 5857 5856 5854 5853 5852 5851 5849 5848 5847 5845 5844 5843 5842 5840 5839 5838 5837 5836 5835 5834
5883 5883 5883 5883 5883 5883 5884 5884 5884 5884 5884 5884 5884 5884 5883 5884 5884 5884 5883 5883 5883 5883 5883 5883 5883 5883 5883 5882 5882 5882 5881 5881 5881 5880 5880 5880 5879 5879 5878 5878 5877 5877 5876 5875 5874 5873 5873 5872 5871 5870 5869 5868 5868 5867 5866 5865 5864 5864 5863 5862 5861 5860 5858 5857 5856 5854 5853 5851 5850 5849 5847 5846 5844 5843 5842 5840 5839 5838 5837 5835 5834 5833 5831 5830 5830
5882 5882 5882 5882 5882 5882 5883 5883 5883 5883 5883 5883 5883 5883 5883 5883 5883 5883 5883 5883 5882 5882 5882 5882 5882 5882 5882 5881 5881 5880 5880 5880 5880 5879 5879 5879 5878 5877 5877 5876 5876 5875 5875 5874 5873 5872 5871 5870 5869 5868 5867 5866 5865 5865 5864 5863 5862 5862 5861 5860 5858 5857 5856 5854 5853 5851 5850 5848 5847 5845 5844 5842 5841 5839 5838 5836 5835 5834 5832 5831 5830 5828 5827 5825 5825
5881 5881 5881 5881 5880 5881 5881 5882 5882 5882 5882 5882 5882 5882 5882 5882 5882 5882 5882 5882 5881 5881 5881 5881 5881 5880 5880 5880 5879 5879 5879 5879 5878 5878 5878 5877 5877 5876 5876 5875 5874 5873 5873 5873 5872 5871 5871 5870 5868 5867 5866 5864 5863 5862 5861 5861 5860 5859 5858 5857 5856 5854 5853 5851 5850 5848 5846 5845 5843 5842 5840 5838 5837 5835 5834 5832 5831 5829 5828 5826 5825 5824 5822 5821 5819
5880 5880 5880 5880 5879 5879 5879 5880 5881 5880 5881 5881 5881 5881 5880 5880 5881 5881 5881 5880 5880 5880 5880 5880 5879 5879 5879 5878 5878 5878 5877 5877 5877 5877 5876 5876 5875 5874 5874 5873 5873 5872 5871 5870 5870 5869 5869 5868 5867 5866 5865 5863 5862 5861 5860 5859 5858 5857 5856 5854 5853 5852 5850 5848 5847 5845 5843 5842 5840 5838 5836 5834 5833 5831 5829 5828 5826 5825 5823 5821 5820 5818 5817 5815 5814
5878 5878 5878 5878 5878 5878 5878 5878 5879 5879 5879 5879 5880 5879 5879 5879 5879 5879 5879 5879 5879 5879 5878 5878 5878 5877 5877 5877 5876 5876 5876 5876 5875 5875 5875 5874 5873 5873 5872 5871 5871 5870 5869 5868 5867 5867 5866 5865 5865 5864 5863 5862 5860 5859 5858 5857 5856 5855 5853 5851 5850 5848 5847 5845 5843 5842 5840 5838 5836 5834 5832 5830 5828 5827 5825 5823 5822 5820 5818 5816 5815 5813 5811 5810 5808
5877 5877 5877 5877 5876 5876 5876 5876 5877 5877 5878 5878 5878 5878 5878 5878 5878 5878 5878 5878 5877 5877 5877 5876 5876 5876 5875 5875 5875 5875 5874 5874 5874 5873 5873 5872 5871 5870 5870 5869 5868 5867 5867 5866 5865 5864 5863 5862 5861 5861 5860 5859 5858 5857 5855 5854 5853 5852 5850 5848 5847 5845 5843 5842 5840 5838 5836 5834 5832 5830 5828 5826 5824 5822 5820 5818 5816 5815 5813 5811 5809 5808 5806 5804 5802
5875 5875 5875 5875 5875 5874 5874 5874 5875 5875 5876 5876 5876 5876 5876 5877 5877 5876 5876 5876 5876 5876 5875 5875 5875 5874 5874 5874 5873 5873 5872 5872 5872 5871 5871 5870 5869 5868 5868 5867 5866 5865 5864 5863 5862 5861 5860 5859 5859 5858 5857 5856 5855 5854 5852 5851 5849 5848 5846 5845 5843 5841 5840 5838 5837 5835 5833 5831 5828 5826 5824 5821 5819 5817 5815 5813 5811 5809 5807 5805 5803 5802 5800 5798 5796
5873 5873 5873 5873 5873 5872 5872 5872 5873 5873 5873 5873 5874 5874 5874 5874 5875 5874 5874 5874 5874 5874 5874 5873 5873 5873 5872 5872 5871 5871 5871 5870 5870 5869 5868 5868 5867 5866 5865 5864 5863 5862 5861 5860 5859 5858 5857 5857 5856 5855 5854 5853 5852 5851 5850 5848 5846 5845 5843 5841 5839 5837 5836 5834 5833 5831 5828 5826 5824 5822 5819 5817 5814 5812 5810 5807 5805 5803 5801 5799 5797 5795 5794 5792 5790
5871 5871 5871 5871 5871 5870 5870 5870 5870 5870 5871 5871 5871 5871 5872 5872 5872 5872 5872 5872 5872 5872 5871 5871 5871 5870 5870 5869 5869 5869 5868 5868 5867 5867 5866 5865 5864 5864 5863 5861 5860 5859 5858 5857 5856 5855 5854 5853 5852 5851 5850 5849 5848 5847 5846 5844 5843 5841 5840 5837 5835 5833 5832 5830 5828 5826 5823 5821 5819 5816 5814 5811 5809 5806 5804 5802 5799 5797 5795 5793 5791 5789 5787 5785 5783
5869 5869 5868 5868 5868 5868 5868 5868 5868 5868 5868 5868 5868 5869 5869 5869 5869 5869 5869 5869 5869 5869 5869 5868 5868 5868 5867 5867 5867 5866 5866 5865 5865 5864 5863 5862 5862 5861 5860 5859 5858 5857 5855 5854 5853 5851 5850 5849 5848 5847 5846 5845 5844 5843 5841 5840 5838 5837 5835 5833 5831 5829 5827 5825 5823 5821 5818 5815 5813 5810 5807 5805 5802 5800 5798 5796 5793 5791 5789 5786 5784 5782 5779 5778 5776
5866 5866 5866 5866 5865 5866 5865 5865 5865 5865 5865 5865 5866 5866 5866 5866 5866 5866 5866 5866 5866 5866 5866 5865 5865 5865 5865 5864 5864 5863 5863 5862 5862 5861 5860 5859 5859 5858 5857 5856 5855 5854 5852 5851 5849 5848 5846 5845 5844 5843 5841 5840 5839 5838 5837 5835 5834 5832 5830 5828 5826 5824 5822 5820 5817 5815 5812 5809 5806 5803 5800 5798 5795 5793 5791 5788 5786 5784 5781 5778 5776 5774 5771 5769 5767
5864 5864 5863 5863 5863 5863 5863 5862 5863 5863 5863 5863 5863 5863 5863 5863 5863 5863 5863 5863 5863 5863 5863 5863 5862 5862 5862 5861 5861 5860 5860 5859 5859 5858 5857 5856 5855 5854 5853 5852 5851 5850 5848 5847 5845 5844 5842 5841 5839 5838 5836 5835 5834 5833 5831 5830 5828 5826 5824 5822 5820 5818 5816 5814 5811 5808 5806 5803 5800 5797 5794 5791 5788 5786 5783 5781 5778 5776 5773 5771 5768 5766 5763 5761 5759
5861 5861 5861 5861 5861 5861 5860 5860 5860 5860 5860 5860 5860 5860 5860 5860 5860 5860 5860 5861 5861 5860 5860 5860 5859 5859 5859 5858 5858 5857 5857 5856 5855 5854 5854 5853 5852 5851 5849 5848 5847 5846 5844 5843 5841 5839 5838 5836 5834 5833 5831 5830 5829 5827 5825 5824 5823 5821 5818 5816 5814 5812 5809 5807 5805 5802 5799 5797 5794 5791 5788 5785 5782 5779 5776 5773 5771 5768 5765 5763 5760 5758 5755 5753 5751
5859 5858 5858 5858 5858 5858 5858 5858 5857 5857 5858 5858 5858 5858 5858 5858 5858 5858 5858 5858 5858 5857 5857 5857 5856 5856 5856 5855 5855 5854 5853 5853 5852 5851 5850 5849 5848 5846 5845 5844 5843 5841 5840 5838 5836 5834 5832 5831 5829 5828 5826 5825 5823 5821 5820 5818 5817 5815 5812 5810 5807 5805 5802 5800 5797 5795 5792 5790 5787 5784 5781 5778 5775 5771 5768 5765 5762 5760 5757 5754 5752 5749 5747 5745 5743
5855 5855 5855 5855 5855 5855 5855 5855 5855 5855 5855 5855 5855 5855 5855 5855 5855 5855 5855 5855 5855 5854 5854 5854 5853 5853 5853 5852 5852 5851 5850 5849 5849 5848 5847 5845 5844 5842 5841 5840 5838 5837 5835 5833 5831 5830 5828 5826 5824 5822 5821 5819 5818 5816 5814 5812 5810 5808 5806 5804 5801 5798 5795 5792 5790 5787 5784 5782 5778 5775 5773 5770 5767 5763 5760 5757 5754 5751 5748 5745 5743 5740 5738 5736 5734
5852 5852 5852 5852 5852 5852 5852 5852 5852 5852 5852 5852 5852 5853 5853 5852 5852 5852 5852 5852 5852 5851 5851 5851 5850 5850 5849 5849 5848 5847 5847 5846 5845 5844 5842 5841 5840 5838 5837 5835 5834 5832 5830 5829 5827 5825 5823 5821 5819 5817 5815 5813 5812 5810 5808 5806 5804 5802 5800 5797 5794 5791 5788 5784 5782 5779 5776 5773 5770 5767 5764 5761 5758 5755 5751 5748 5745 5742 5739 5736 5733 5731 5728 5726 5724
5848 5848 5848 5849 5848 5848 5848 5849 5849 5849 5848 5849 5849 5850 5850 5850 5850 5849 5849 5849 5848 5848 5848 5848 5847 5847 5846 5845 5844 5844 5843 5842 5841 5839 5838 5836 5835 5834 5832 5831 5829 5827 5825 5824 5822 5820 5818 5816 5814 5812 5810 5808 5806 5804 5802 5800 5798 5795 5793 5790 5788 5784 5781 5778 5774 5771 5768 5765 5762 5759 5756 5753 5750 5746 5743 5739 5736 5732 5729 5726 5724 5721 5719 5716 5714
5845 5845 5845 5845 5845 5844 5844 5845 5845 5845 5845 5845 5846 5846 5846 5846 5846 5846 5846 5845 5845 5845 5844 5844 5843 5843 5842 5841 5840 5839 5838 5837 5836 5835 5833 5832 5830 5829 5827 5826 5824 5822 5820 5819 5817 5815 5813 5811 5809 5806 5804 5802 5799 5797 5795 5793 5791 5788 5786 5783 5780 5777 5774 5771 5768 5764 5761 5757 5754 5751 5748 5745 5741 5737 5734 5730 5726 5723 5719 5716 5713 5711 5708 5706 5704
5841 5841 5841 5841 5841 5841 5840 5840 5841 5841 5841 5842 5842 5842 5842 5842 5842 5842 5842 5841 5841 5841 5841 5840 5839 5838 5838 5837 5836 5835 5834 5833 5831 5830 5829 5827 5826 5824 5822 5821 5819 5817 5815 5813 5812 5810 5807 5805 5803 5800 5798 5795 5793 5791 5789 5786 5784 5781 5778 5775 5772 5769 5766 5763 5760 5757 5754 5750 5746 5743 5739 5736 5732 5728 5724 5721 5717 5713 5710 5706 5703 5700 5697 5695 5693
5837 5837 5837 5837 5837 5837 5836 5836 5837 5837 5837 5837 5837 5838 5838 5838 5838 5838 5837 5837 5837 5837 5836 5836 5835 5834 5833 5832 5831 5830 5829 5828 5826 5825 5824 5822 5821 5819 5817 5815 5813 5812 5810 5808 5806 5804 5802 5799 5796 5794 5791 5789 5786 5784 5781 5779 5777 5774 5770 5767 5764 5761 5758 5755 5752 5749 5747 5744 5739 5736 5731 5728 5724 5720 5715 5711 5707 5704 5700 5697 5693 5689 5686 5684 5683
5833 5833 5833 5833 5833 5833 5832 5832 5833 5833 5833 5833 5833 5833 5833 5833 5833 5833 5833 5833 5833 5832 5832 5831 5830 5829 5828 5827 5826 5825 5824 5823 5821 5820 5819 5817 5816 5814 5812 5810 5808 5806 5805 5803 5801 5798 5796 5793 5790 5788 5785 5782 5779 5776 5774 5772 5769 5766 5762 5759 5756 5752 5749 5747 5743 5740 5737 5734 5731 5728 5723 5719 5716 5711 5707 5703 5699 5694 5691 5687 5684 5680 5677 5675 5672
5829 5829 5829 5829 5829 5829 5828 5828 5829 5829 5828 5828 5828 5828 5829 5829 5829 5829 5829 5828 5828 5827 5827 5826 5825 5824 5823 5822 5821 5820 5819 5818 5816 5815 5814 5812 5810 5808 5806 5804 5802 5801 5799 5797 5795 5792 5790 5787 5784 5782 5779 5776 5773 5770 5767 5764 5760 5757 5753 5750 5747 5744 5741 5738 5735 5731 5728 5724 5720 5716 5713 5708 5705 5702 5697 5693 5689 5685 5681 5678 5674 5671 5669 5666 5663
5825 5825 5825 5825 5824 5824 5824 5824 5825 5824 5824 5824 5824 5824 5824 5824 5824 5824 5824 5824 5823 5823 5822 5821 5821 5820 5818 5817 5816 5815 5814 5813 5811 5810 5808 5806 5805 5803 5801 5799 5797 5795 5793 5791 5788 5786 5784 5781 5778 5776 5773 5770 5767 5764 5760 5757 5753 5749 5746 5742 5739 5736 5733 5730 5726 5723 5720 5716 5711 5706 5703 5697 5693 5690 5687 5683 5679 5675 5671 5667 5664 5661 5659 5656 5653
5820 5820 5820 5820 5820 5820 5820 5820 5820 5820 5820 5820 5819 5819 5819 5820 5820 5820 5819 5819 5819 5818 5817 5817 5815 5814 5813 5812 5811 5810 5809 5807 5806 5804 5802 5800 5798 5797 5795 5793 5791 5789 5787 5784 5782 5780 5777 5775 5772 5769 5767 5764 5761 5757 5753 5750 5746 5742 5739 5736 5732 5729 5726 5722 5719 5715 5712 5709 5704 5700 5696 5691 5685 5680 5677 5673 5669 5665 5662 5658 5654 5651 5648 5645 5642
5815 5815 5815 5815 5815 5815 5815 5815 5815 5815 5815 5815 5815 5815 5815 5815 5815 5815 5814 5814 5814 5813 5812 5811 5810 5809 5808 5807 5806 5805 5803 5802 5800 5798 5796 5794 5792 5790 5788 5786 5784 5782 5780 5778 5776 5773 5771 5768 5765 5763 5760 5756 5753 5750 5746 5743 5739 5736 5732 5728 5725 5721 5718 5714 5711 5707 5704 5700 5696 5692 5688 5685 5679 5674 5669 5665 5661 5657 5653 5649 5645 5641 5638 5634 5631
5810 5810 5810 5810 5810 5810 5810 5810 5810 5810 5810 5810 5810 5810 5810 5810 5810 5810 5810 5809 5809 5808 5807 5806 5805 5804 5803 5802 5800 5799 5798 5796 5794 5792 5790 5788 5786 5784 5782 5780 5778 5776 5774 5771 5769 5766 5764 5761 5758 5755 5752 5748 5745 5742 5739 5736 5732 5728 5725 5721 5717 5713 5709 5705 5701 5698 5694 5690 5687 5682 5679 5676 5671 5666 5662 5657 5652 5648 5643 5639 5635 5631 5628 5624 5621